Location: Rockford
(42.2710°N, 89.0940°W)
Time: 06:29:05
(UTC-06:00)

Daily predictions for brighter satellites

Satellite Brightness Start Highest point End
(mag) Time Altitude Azimuth Time Altitude Azimuth Time Altitude Azimuth
Cosmos 1536 Rocket 4.4 16:50:41 10° SSE 16:54:36 31° E 16:58:33 10° NNE
Cosmos 1833 Rocket 3.9 16:51:47 10° N 16:55:56 20° NE 17:00:03 10° E
Meteor 1-5 Rocket 4.3 16:52:30 10° N 16:57:59 89° WSW 17:03:36 10° S
NOSS 3-3 (A) 4.3 16:52:20 10° S 16:58:14 50° ESE 17:04:33 10° NE
NOSS 3-3 (C) 4.4 16:52:27 10° S 16:58:20 49° ESE 17:04:39 10° NE
OPS 8737 4.3 16:55:07 10° SSW 16:58:26 66° ESE 17:01:35 10° NE
Cosmos 2082 Rocket 3.2 16:54:14 10° N 16:58:48 24° NE 17:03:22 10° ESE
Cosmos 1238 Rocket 2.5 17:00:21 10° SSE 17:03:08 41° E 17:06:06 10° NNE
YAOGAN 1 2.9 16:59:42 10° SE 17:03:49 45° ENE 17:07:58 10° N
SPOT 3 Rocket 3.6 16:59:28 10° SSE 17:04:32 57° ENE 17:09:37 10° N
Ariane Rocket 4.4 16:59:45 10° S 17:04:34 44° W 17:09:25 10° NNW
Cosmos 1975 3.5 17:01:12 10° NNE 17:04:54 32° ENE 17:08:32 10° SE
MSX 4.2 16:59:37 10° SE 17:04:55 40° ENE 17:10:14 10° N
Cosmos 1743 4.5 17:03:11 10° NE 17:05:05 13° ENE 17:06:58 10° E
CZ-4 R/B 1.4 17:01:09 10° SSE 17:05:18 67° ENE 17:09:25 10° N
ATLAS 2AS CENTAUR R/B 3.1 16:58:10 10° NW 17:06:19 90° WSW 17:13:54 10° SSE
Cosmos 494 Rocket 4.0 17:01:39 10° NNW 17:06:54 68° ENE 17:12:08 10° SSE
COSMOS 2487 3.5 17:06:00 10° N 17:09:02 25° ENE 17:12:01 10° ESE
Cosmos 1500 4.1 17:06:41 10° NNE 17:10:02 28° ENE 17:13:23 10° SE
Meteor 1-12 Rocket 4.4 17:05:37 10° N 17:11:21 58° ENE 17:17:09 10° SSE
Meteor 2-19 Rocket 4.4 17:05:33 10° N 17:11:38 82° E 17:17:41 10° S
CRYOSAT 2 4.3 17:06:44 10° N 17:11:40 76° E 17:16:33 10° S
Cosmos 1484 Rocket 3.9 17:09:25 10° ESE 17:12:20 22° ENE 17:15:15 10° NNE
CZ-2C R/B 2.5 17:08:04 10° SSE 17:13:01 67° ENE 17:18:09 10° N
USA 32 4.0 17:08:04 10° S 17:13:17 82° E 17:18:32 10° N
MOS 1 4.2 17:08:20 10° SSE 17:13:58 73° ENE 17:19:38 10° N
EP 2 4.2 17:14:36 10° SW 17:17:11 86° WNW 17:19:41 12° NE
Tiangong 1 2.2 17:14:54 10° SW 17:17:39 32° SSE 17:19:54 13° E
SJ-12 3.8 17:14:08 10° SSE 17:18:13 80° ENE 17:22:22 10° N
Cosmos 1455 Rocket 3.0 17:17:45 10° N 17:22:11 82° E 17:26:37 10° S
SKYMED 2 4.5 17:22:16 10° NE 17:26:04 29° E 17:29:51 10° SSE
SL-8 Rocket 4.4 17:23:10 10° NNW 17:29:17 66° W 17:35:21 10° S
IDEFIX/ARIANE 42P 2.6 17:24:13 10° SSE 17:29:25 90° WSW 17:34:38 10° NNW
BREEZE-M R/B 4.5 17:18:17 10° SW 17:30:25 85° SSE 17:34:45 17° ENE
ASTRO F (AKARI) 4.5 17:28:15 11° NNE 17:31:09 47° E 17:34:12 10° S
AQUARIUS 4.3 17:28:17 10° S 17:32:47 80° WSW 17:37:18 10° NNW
Okean 1-7 Rocket 4.3 17:32:40 10° SSE 17:36:40 32° E 17:39:56 14° NNE
Cosmos 1809 Rocket 4.4 17:32:36 10° N 17:38:42 62° E 17:44:44 10° SSE
Thor Agena Rocket 3.7 17:33:56 10° NNE 17:39:09 78° WNW 17:44:25 10° SSW
Cosmos 1844 Rocket 4.0 17:34:29 10° SW 17:39:41 38° WNW 17:44:56 10° N
Cosmos 1812 3.3 17:37:56 10° SSW 17:41:44 59° W 17:45:34 10° N
Cosmos 2366 rocket 4.3 17:35:24 10° NNW 17:41:44 73° W 17:47:59 10° S
OE (NEXTSAT) 4.3 17:43:15 10° WSW 17:46:50 88° SSE 17:48:25 31° ENE
NOSS 2-1 (D) 3.9 17:48:46 10° S 17:52:20 38° ESE 17:53:30 31° E
NOSS 2-1 (C) 3.9 17:49:28 10° S 17:53:02 38° ESE 17:54:09 31° E
TIMED 4.5 17:49:53 10° S 17:54:11 61° ESE 17:56:50 22° NNE
Okean 1 3.8 17:50:27 10° SSW 17:54:27 61° W 17:58:29 10° N
Abrixas 2.5 17:51:36 10° WNW 17:54:32 54° NNE 17:54:51 50° NE
Timation 1 Rocket 4.4 17:54:37 10° S 18:00:27 60° ESE 18:04:20 22° NE
Cosmos 2239 Rocket 4.5 17:59:02 10° N 18:05:08 57° E 18:11:10 10° SSE
Cosmos 1346 Rocket 3.0 18:01:23 10° SSW 18:05:16 67° W 18:08:50 12° N
Cosmos 2297 3.6 18:00:41 10° SSW 18:06:18 81° ESE 18:10:21 20° NNE
ISS -1.3 18:05:14 10° NW 18:07:34 18° N 18:07:47 18° N
BREEZE M DEB (TANK) 2.6 17:59:25 10° SW 18:07:44 70° SSE 18:08:45 44° E
Timation 2 Rocket 4.1 18:02:33 10° NNW 18:09:26 88° ENE 18:16:20 10° SSE
NOSS 2-1 (E) 3.4 18:07:49 10° SSW 18:11:35 55° ESE 18:12:13 49° E
COSMO-SKYMED 1 2.5 18:10:34 14° N 18:14:14 83° WNW 18:18:34 10° SSW
Cosmos 1821 Rocket 3.8 18:09:53 10° N 18:15:58 66° E 18:22:00 10° SSE
NOAA 12 4.0 18:11:07 10° SSE 18:16:18 59° ENE 18:21:28 10° N
Cosmos 2278 Rocket 3.3 18:13:02 10° SW 18:18:21 41° WNW 18:23:40 10° NNE
Intercosmos 25 3.1 18:17:35 10° NNW 18:20:46 68° W 18:24:04 10° S
CZ-3B DEB 3.3 18:21:38 10° W 18:26:06 48° NNW 18:31:38 25° NE
USA 234 3.9 18:22:16 23° NNE 18:26:09 47° NNW 18:32:20 10° W
Cosmos 1605 Rocket 4.2 18:20:25 10° N 18:26:27 45° ENE 18:32:21 10° SSE
SL-8 R/B 4.1 18:25:03 10° W 18:29:41 49° NNW 18:30:27 44° NNE
METEOR-M 4.0 18:26:42 10° SSE 18:31:59 70° ENE 18:37:19 10° N
Cosmos 2056 Rocket 3.5 18:27:12 10° S 18:32:27 57° ESE 18:32:41 56° E
Cosmos 1025 Rocket 2.9 18:31:36 10° S 18:35:59 90° NNW 18:36:25 72° N
Cosmos 921 Rocket 3.7 18:34:40 10° SSW 18:38:49 52° WNW 18:40:22 34° NNW
Cosmos 1833 Rocket 2.9 18:34:47 10° NNW 18:40:24 69° WSW 18:45:58 10° SSE
Cosmos 1743 3.9 18:37:29 10° NNW 18:41:11 43° W 18:44:50 10° SSW
NOSS 3-4 (A) 3.7 18:35:14 10° NNW 18:42:14 71° NE 18:45:08 40° SE
NOSS 3-4 (C) 3.7 18:35:20 10° NNW 18:42:20 71° NE 18:45:09 40° ESE
Cosmos 2082 Rocket 2.8 18:37:42 10° NNW 18:43:14 55° WSW 18:48:45 10° S
Cosmos 1624 Rocket 3.8 18:40:39 10° SSW 18:45:50 81° ESE 18:46:00 79° ENE
GEOS 3 Rocket 3.6 18:47:42 46° SSE 18:49:16 78° SW 18:54:25 10° NW
Meteor 1-28 Rocket 4.2 18:50:54 47° W 18:50:54 47° W 18:54:13 10° SSW
Cosmos 1371 Rocket 4.1 18:45:35 10° SSW 18:50:56 76° WNW 18:52:09 54° N
Tiangong 1 3.9 18:50:39 10° W 18:51:36 18° W 18:51:36 18° W
Meteor 1-15 Rocket 4.1 18:48:03 10° N 18:53:59 85° E 18:59:48 10° S
